Satellite-Ground Cal/Val Region Overpasses Predictions

Prediction of Satellite NPP Overpassing Cal/Val Region: PacNW

Region Location: (Latitude: 10.00, Longitude: 139.50) to (Latitude: 22.70, Longitude: 165.60).

Table of predicted overpasses for the next 14.0 days since TLE Epoch: 2/28/2014
Interval Starting Time Starting Location Ending Time Ending Location
1 03/01/2014 03:08:15 ( 10.02, 153.52) 03/01/2014 03:11:50 ( 22.64, 150.50)
2 03/01/2014 15:40:08 ( 22.65, 150.78) 03/01/2014 15:43:43 ( 10.03, 147.76)
3 03/02/2014 02:49:13 ( 10.01, 158.28) 03/02/2014 02:52:49 ( 22.69, 155.25)
4 03/02/2014 15:21:07 ( 22.66, 155.54) 03/02/2014 15:24:42 ( 10.04, 152.53)
5 03/03/2014 02:30:13 ( 10.06, 163.03) 03/03/2014 02:33:48 ( 22.68, 160.01)
6 03/03/2014 15:02:05 ( 22.67, 160.30) 03/03/2014 15:05:40 ( 10.05, 157.29)
7 03/04/2014 02:13:50 ( 19.39, 165.59) 03/04/2014 02:14:46 ( 22.67, 164.78)
8 03/04/2014 03:52:41 ( 10.05, 142.42) 03/04/2014 03:56:09 ( 22.26, 139.51)
9 03/04/2014 14:43:04 ( 22.68, 165.07) 03/04/2014 14:46:40 ( 10.00, 162.04)
10 03/04/2014 16:24:34 ( 22.68, 139.69) 03/04/2014 16:24:47 ( 21.91, 139.50)
11 03/05/2014 03:33:40 ( 10.04, 147.18) 03/05/2014 03:37:15 ( 22.67, 144.17)
12 03/05/2014 16:05:32 ( 22.68, 144.46) 03/05/2014 16:09:08 ( 10.01, 141.43)
13 03/06/2014 03:14:38 ( 10.04, 151.94) 03/06/2014 03:18:13 ( 22.66, 148.93)
14 03/06/2014 15:46:31 ( 22.69, 149.22) 03/06/2014 15:50:07 ( 10.01, 146.19)
15 03/07/2014 02:55:37 ( 10.03, 156.71) 03/07/2014 02:59:12 ( 22.66, 153.69)
16 03/07/2014 15:27:29 ( 22.69, 153.98) 03/07/2014 15:31:05 ( 10.02, 150.95)
17 03/08/2014 02:36:35 ( 10.03, 161.47) 03/08/2014 02:40:10 ( 22.65, 158.45)
18 03/08/2014 15:08:28 ( 22.70, 158.74) 03/08/2014 15:12:04 ( 10.02, 155.71)
19 03/09/2014 02:18:21 ( 12.79, 165.59) 03/09/2014 02:21:09 ( 22.65, 163.22)
20 03/09/2014 03:59:04 ( 10.03, 140.85) 03/09/2014 04:00:43 ( 15.85, 139.50)
21 03/09/2014 14:49:27 ( 22.70, 163.50) 03/09/2014 14:53:03 ( 10.02, 160.48)
22 03/10/2014 03:40:02 ( 10.03, 145.62) 03/10/2014 03:43:37 ( 22.66, 142.60)
23 03/10/2014 14:33:35 ( 11.55, 165.59) 03/10/2014 14:34:01 ( 10.02, 165.24)
24 03/10/2014 16:11:55 ( 22.69, 142.89) 03/10/2014 16:15:31 ( 10.02, 139.86)
25 03/11/2014 03:21:01 ( 10.04, 150.38) 03/11/2014 03:24:36 ( 22.66, 147.36)
26 03/11/2014 15:52:54 ( 22.69, 147.65) 03/11/2014 15:56:30 ( 10.02, 144.62)
27 03/12/2014 03:01:59 ( 10.04, 155.14) 03/12/2014 03:05:34 ( 22.66, 152.12)
28 03/12/2014 15:33:52 ( 22.69, 152.41) 03/12/2014 15:37:28 ( 10.01, 149.39)
29 03/13/2014 02:42:58 ( 10.04, 159.90) 03/13/2014 02:46:33 ( 22.67, 156.88)
30 03/13/2014 15:14:51 ( 22.68, 157.17) 03/13/2014 15:18:27 ( 10.01, 154.15)
31 03/14/2014 02:23:56 ( 10.05, 164.66) 03/14/2014 02:27:31 ( 22.67, 161.65)


NCC Satellite Cal/Val Overpasses Prediction Service
